Lapse_Rate
7.4 7.3 7.3 7.3 7.3 7.3 7.2 7.0 6.8 6.5 6.4 6.2 6.0 6.0 6.0 5.9 5.9 6.0 6.1 6.1 5.9 5.8 5.9 6.1 6.1 6.1 6.1 6.3 6.4 6.4 6.5 6.4 6.6 6.4 6.0 6.2 6.1 6.2 6.0 5.8 5.8 5.9 6.0
7.2 7.2 7.2 7.2 7.2 7.1 7.1 7.1 6.9 6.5 6.4 6.2 6.0 6.1 6.2 6.2 6.2 6.2 6.2 6.1 6.0 6.1 6.3 6.2 6.3 6.4 6.4 6.4 6.4 6.3 6.2 6.4 6.5 6.2 6.0 4.8 4.9 5.6 6.0 6.0 6.0 5.9 5.9
7.1 7.2 7.1 7.2 7.0 7.0 6.9 6.9 6.8 6.6 6.5 6.3 6.3 6.3 6.3 6.3 6.2 6.4 6.4 6.4 6.5 6.4 6.4 6.4 6.5 6.5 6.4 6.4 6.4 6.3 6.3 6.1 6.1 6.2 6.0 5.3 4.7 5.3 5.5 5.7 5.9 5.8 5.8
7.8 7.4 7.2 7.1 7.2 7.1 6.9 6.9 6.9 6.9 6.6 6.6 6.6 6.5 6.4 6.4 6.4 6.5 6.5 6.6 6.7 6.7 6.7 6.7 6.6 6.6 6.6 6.5 6.5 6.3 6.1 5.9 5.9 6.0 6.0 6.0 6.1 5.2 4.6 4.4 5.4 5.3 5.6
8.6 8.2 7.8 7.6 7.4 7.1 7.0 7.0 7.0 7.1 7.0 6.8 6.7 6.6 6.6 6.5 6.5 6.6 6.6 6.6 6.7 6.8 6.7 6.6 6.7 6.6 6.7 6.7 6.6 6.3 6.0 5.9 5.8 5.8 5.8 5.8 5.7 5.7 5.8 4.9 4.3 4.5 5.1
8.9 8.7 8.3 7.9 7.7 7.3 7.2 7.4 7.4 7.4 7.3 7.0 6.8 6.6 6.6 6.7 6.7 6.7 6.8 6.6 6.6 6.7 6.7 6.6 6.7 6.6 6.6 6.6 6.7 6.4 6.1 5.8 5.8 5.7 5.6 5.7 5.6 5.3 5.6 5.1 5.0 4.9 4.8
8.8 8.8 8.8 8.5 8.2 7.8 7.6 7.4 7.4 7.5 7.4 7.4 7.1 6.8 6.7 6.8 6.7 6.7 6.8 6.8 6.7 6.8 6.9 6.8 6.7 6.7 6.6 6.6 6.8 6.6 6.4 6.0 5.9 5.8 5.8 5.7 5.7 5.4 5.5 5.3 4.6 4.0 3.6
8.8 8.6 8.7 8.7 8.3 8.3 8.0 7.8 7.8 7.7 7.6 7.4 7.3 7.2 7.0 6.9 6.9 6.9 7.0 7.0 7.1 7.0 7.0 6.9 6.8 6.7 6.6 6.8 6.9 6.9 6.5 6.2 6.0 5.9 5.7 5.6 5.6 5.6 5.4 5.2 4.5 4.3 3.5
9.2 9.1 8.6 8.4 8.5 8.3 8.2 8.1 8.0 7.9 7.7 7.7 7.4 7.3 7.2 7.1 7.0 7.0 7.1 7.0 7.1 7.0 6.8 6.9 6.6 6.7 6.7 6.5 6.6 6.6 6.7 6.4 6.2 6.0 5.7 5.5 5.4 5.0 4.4 4.5 5.1 4.9 4.6
9.3 9.1 8.9 8.6 8.6 8.4 8.2 7.9 7.9 8.0 8.0 7.8 7.7 7.4 7.4 7.3 7.1 7.3 7.3 7.3 7.3 7.1 7.0 6.5 6.9 6.6 6.4 6.5 6.5 6.7 6.7 6.5 6.5 6.3 6.0 5.5 5.3 4.8 4.2 4.6 4.4 4.6 4.8
9.6 9.3 9.1 9.0 8.5 8.4 8.2 8.1 7.8 7.8 7.9 8.0 7.9 7.8 7.7 7.5 7.4 7.4 7.3 7.3 7.1 6.6 6.7 6.8 7.1 6.8 6.9 6.6 6.5 6.4 6.6 6.7 6.4 6.3 6.1 5.9 5.5 5.0 4.6 4.2 4.6 4.4 4.2
9.5 9.5 9.1 9.1 9.0 8.5 8.1 8.0 7.9 7.9 8.1 8.0 8.0 7.9 7.8 7.7 7.7 7.2 7.4 7.1 6.4 6.8 6.9 6.5 6.3 6.0 6.1 6.3 6.6 6.6 6.5 6.6 6.3 6.2 5.9 5.7 5.4 5.0 4.8 4.8 4.7 4.6 4.5
9.4 9.5 9.3 9.2 9.0 8.8 8.4 8.2 8.1 8.2 8.2 8.1 8.1 7.9 8.0 7.9 7.7 7.6 7.4 7.0 6.4 6.3 6.4 7.0 5.8 5.9 5.8 5.7 6.2 6.2 6.4 6.3 6.0 5.9 5.9 5.5 5.3 5.1 4.8 4.6 4.6 4.3 4.0
9.5 9.6 9.4 9.3 9.2 8.9 8.8 8.7 8.3 8.2 8.2 8.2 8.2 8.1 8.1 7.9 7.8 7.6 7.6 7.3 6.8 6.6 6.8 7.0 6.6 5.4 5.2 5.0 5.5 5.9 5.9 6.0 5.9 5.8 5.8 5.5 5.2 5.0 4.7 4.8 4.7 4.5 4.9
9.6 9.6 9.5 9.2 9.2 9.0 8.8 8.5 8.4 8.4 8.3 8.3 8.3 8.4 8.0 7.9 7.7 7.7 7.5 7.4 7.0 7.0 7.1 6.6 6.5 5.9 5.5 5.4 5.3 5.5 5.9 6.1 6.0 5.7 5.4 5.2 5.3 5.1 4.8 4.8 5.0 4.9 4.9
9.6 9.6 9.5 9.3 9.2 9.2 9.1 8.8 8.6 8.4 8.6 8.5 8.5 8.1 8.2 8.3 8.2 8.1 7.7 7.7 7.7 7.3 7.3 7.0 6.4 5.9 5.4 5.6 5.7 5.3 5.6 5.9 6.0 5.7 5.6 5.6 5.5 5.5 5.2 5.3 5.3 5.2 4.7
9.6 9.5 9.6 9.3 9.2 9.2 9.1 8.9 8.7 8.3 8.5 8.7 8.5 8.4 8.3 8.4 8.3 8.2 8.2 8.1 7.9 7.3 7.1 6.8 6.6 6.1 6.1 6.0 5.9 5.4 5.5 5.7 5.7 5.7 5.7 5.7 5.6 5.4 5.5 5.3 5.2 5.6 5.4
9.6 9.6 9.5 9.4 9.4 9.3 8.8 8.5 8.5 8.7 8.9 8.8 8.7 8.6 8.5 8.4 8.3 8.1 8.1 8.2 8.1 7.9 7.3 7.1 7.0 6.1 6.3 6.1 6.0 5.7 5.9 5.4 5.7 5.9 5.3 5.2 5.3 5.5 5.4 5.2 5.6 5.4 5.4
9.6 9.6 9.6 9.6 9.6 9.2 8.9 8.9 8.8 8.8 8.8 8.8 8.7 8.5 8.3 8.1 7.9 7.9 8.1 8.1 8.0 7.7 7.4 7.5 6.9 6.5 5.9 6.1 5.9 5.6 5.5 5.6 5.3 4.9 4.8 5.0 5.2 5.3 5.3 5.5 5.3 5.6 5.7
9.6 9.6 9.5 9.6 9.5 9.3 9.1 9.1 8.9 8.7 8.6 8.6 8.5 8.1 7.9 8.0 8.0 8.0 8.1 7.9 7.9 7.6 7.3 6.9 6.7 6.6 5.7 5.8 5.8 5.7 5.7 5.6 5.6 5.8 5.2 5.2 5.4 5.4 4.9 5.1 5.4 5.6 5.7
9.6 9.5 9.4 9.5 9.4 9.3 9.1 9.0 8.7 8.5 8.5 8.2 8.2 8.1 8.1 8.3 8.2 8.2 8.1 7.5 6.9 7.2 6.9 6.6 6.2 6.4 5.6 5.2 5.5 5.9 5.9 5.5 5.4 5.4 5.3 5.6 5.6 5.1 5.4 5.5 5.8 5.9 6.0
9.3 9.4 9.4 9.2 8.9 8.9 8.7 8.5 8.4 8.1 7.9 7.8 8.0 8.2 8.3 8.2 8.0 7.9 7.6 7.4 6.9 6.8 6.9 6.8 6.5 6.5 6.2 5.4 5.5 5.6 5.7 5.7 5.8 5.8 5.6 5.7 5.6 5.9 6.1 6.2 6.2 6.2 6.4
8.8 8.7 8.5 8.5 8.5 8.6 8.4 8.1 7.9 7.8 7.8 7.8 8.1 8.1 8.1 7.7 7.6 7.4 7.2 7.1 6.5 6.4 6.7 6.4 6.3 6.2 6.0 5.7 5.9 6.0 5.7 5.9 5.6 5.9 5.9 5.9 6.0 6.3 6.3 6.4 6.2 6.2 6.4
7.9 8.0 7.8 8.2 8.2 8.2 8.2 7.9 7.7 7.7 7.8 7.9 7.9 7.5 7.3 6.8 6.7 7.0 6.7 6.7 6.3 6.3 6.2 6.3 5.8 5.6 5.6 5.7 5.8 5.9 5.6 5.8 5.9 6.1 6.1 6.2 6.4 6.5 6.4 6.3 6.4 6.4 6.2
7.2 7.3 7.4 7.6 7.7 7.9 8.1 8.0 7.8 7.8 7.7 7.6 7.8 7.4 6.9 6.5 6.6 6.9 6.7 6.1 6.3 6.3 6.1 5.8 5.9 5.8 5.8 6.0 6.1 5.7 5.9 6.2 6.4 6.5 6.6 6.6 6.6 6.4 6.5 6.6 6.6 6.3 6.4
7.6 7.6 7.8 7.7 7.7 7.8 7.9 7.8 7.8 7.9 7.7 7.4 7.4 7.2 6.7 6.3 6.5 6.5 6.3 6.3 6.5 6.5 6.6 5.8 5.8 5.8 6.0 5.9 5.9 6.0 6.2 6.5 6.6 6.4 6.5 6.4 6.4 6.3 6.3 6.4 6.4 6.5 6.7
Wind_Speed
20 19 19 19 18 17 16 16 16 15 10 10 10 10 9 8 7 9 9 8 9 8 6 6 7 7 5 3 3 6 5 6 2 6 2 3 3 3 1 4 5 5 5
19 20 20 20 20 19 17 16 16 16 13 11 9 8 8 9 9 9 8 9 10 9 9 7 5 2 3 2 3 3 6 3 2 5 4 2 5 5 3 3 4 5 5
21 21 21 21 20 19 19 17 17 16 15 14 9 8 7 6 6 7 8 9 10 9 8 6 3 2 4 2 2 2 2 5 1 3 4 3 1 3 5 4 4 3 5
21 20 22 21 21 20 18 18 17 17 15 15 12 13 10 9 8 6 5 4 7 7 7 7 5 3 3 1 3 2 4 4 3 1 3 3 5 4 2 5 3 0 1
22 22 22 22 20 20 18 17 17 16 16 15 14 11 13 9 8 6 5 6 6 9 10 9 7 5 5 4 2 2 3 2 5 3 2 0 3 1 4 6 2 2 3
23 22 21 21 21 20 19 18 17 16 16 16 17 15 12 12 8 8 7 7 8 8 10 11 9 7 5 5 4 3 4 4 4 5 3 4 3 3 3 5 5 4 4
22 22 23 22 22 23 21 18 18 18 17 18 17 17 16 15 13 10 9 8 7 7 10 10 8 6 7 4 4 4 3 4 4 4 5 3 4 4 5 5 6 6 5
24 25 25 23 23 23 22 21 19 18 18 18 17 15 17 12 12 12 10 9 8 7 7 9 8 8 8 7 7 6 6 5 5 5 5 7 5 5 6 6 7 8 7
26 26 25 25 23 23 22 21 19 19 19 19 16 16 15 16 12 12 11 8 8 6 7 10 9 8 8 8 8 7 7 5 7 7 7 8 7 6 6 6 6 9 9
22 25 25 26 24 23 22 22 22 20 18 19 17 15 16 16 14 13 13 13 10 8 8 10 9 10 8 8 9 8 8 7 6 6 6 7 8 8 7 6 7 8 9
21 23 25 25 24 23 22 22 21 20 19 18 17 17 16 16 16 15 13 11 9 9 9 8 8 10 9 10 10 10 8 8 8 9 8 9 8 8 7 6 6 7 8
18 21 22 23 24 25 23 23 21 21 20 19 18 18 16 16 17 14 14 15 12 13 12 7 7 7 9 10 12 12 10 10 10 10 10 9 7 7 8 8 8 8 9
13 17 20 22 23 23 22 23 22 22 21 19 18 18 18 19 17 16 15 14 15 12 12 14 11 10 8 13 13 13 12 10 11 10 10 10 9 9 8 9 9 9 8
12 16 18 20 21 20 19 19 21 20 20 19 19 18 18 17 16 15 16 15 16 16 13 13 12 10 13 12 13 14 13 12 11 11 11 10 11 10 10 10 10 9 9
14 18 19 18 18 18 17 17 18 17 17 17 17 17 14 15 14 15 18 16 17 17 14 13 11 10 13 10 14 14 13 12 12 12 12 12 12 9 9 9 8 9 10
16 19 19 19 20 19 17 16 15 15 14 14 15 13 13 14 15 16 18 18 19 18 13 12 13 14 12 15 11 12 12 13 12 11 10 8 7 8 8 9 10 11 10
18 19 20 17 16 16 15 15 14 13 14 13 13 14 14 16 16 16 17 18 17 14 13 10 12 17 16 11 14 12 12 11 11 9 8 8 6 5 11 10 12 13 15
15 16 16 15 14 15 15 14 14 13 14 13 14 14 15 15 15 15 18 18 17 16 12 11 13 16 14 9 11 12 12 12 11 8 5 5 7 7 13 10 11 11 11
13 15 14 15 16 16 15 15 15 14 14 14 14 14 15 15 14 16 17 17 17 16 14 11 12 15 14 13 16 12 13 13 12 7 7 6 5 2 3 8 10 11 10
14 16 18 17 17 17 17 16 15 15 15 15 15 14 15 15 16 15 14 12 13 15 12 11 12 13 12 15 17 17 12 10 8 5 5 5 2 7 4 7 8 9 10
16 19 18 17 17 17 17 15 15 14 13 14 14 14 14 14 11 12 10 10 11 9 10 11 14 10 10 11 15 14 10 9 5 6 5 4 8 4 7 6 7 6 5
18 19 18 16 14 14 13 14 12 11 11 11 11 10 11 10 10 10 9 9 9 10 10 10 10 11 12 6 11 10 11 3 6 6 4 8 9 6 6 7 5 2 6
17 15 15 14 12 10 9 10 9 10 11 11 11 10 10 9 9 8 8 7 9 9 8 7 9 9 7 5 8 4 6 6 6 2 7 10 7 6 8 8 5 7 8
13 13 12 12 10 9 10 10 10 10 10 10 10 9 8 9 9 8 7 7 8 8 8 8 0 1 3 6 6 6 6 7 6 7 5 3 3 1 6 7 8 7 5
10 8 8 8 9 9 9 9 9 9 9 9 9 10 9 8 7 3 4 5 6 4 4 4 4 5 5 5 4 3 7 6 5 3 4 6 6 6 5 5 5 5 6
9 6 7 8 8 9 9 9 10 10 11 10 7 6 7 7 7 6 5 12 10 6 4 2 2 4 6 13 13 10 11 10 6 4 5 5 4 5 5 4 5 5 3
Wind_Direction
196 196 197 197 198 199 199 202 206 206 202 207 210 207 222 226 227 245 242 221 225 236 243 244 228 241 269 328 304 285 254 302 10 279 343 159 206 71 45 42 25 24 35
195 197 197 201 201 199 202 202 210 209 207 210 212 232 221 224 200 229 230 242 234 226 225 247 232 215 285 251 290 279 304 275 18 317 265 274 164 190 72 65 59 21 36
203 198 200 201 201 200 201 206 208 211 207 224 208 217 235 252 216 227 218 212 221 219 229 198 250 182 280 225 212 220 282 293 120 334 318 257 352 344 146 159 76 34 54
207 203 202 204 204 204 203 206 209 211 212 207 220 208 223 223 220 224 224 232 218 217 194 188 184 213 260 154 189 209 292 269 286 193 192 330 4 330 261 171 141 261 71
208 206 202 204 207 203 203 206 207 210 214 204 222 208 223 222 229 216 216 228 189 206 198 190 184 190 225 170 257 222 237 227 301 259 237 144 278 221 306 315 322 305 174
206 206 206 202 205 204 203 205 205 208 208 208 205 217 221 229 222 202 208 219 208 196 204 195 193 192 203 207 222 218 220 272 298 294 291 267 277 279 286 293 291 320 286
202 201 203 201 202 203 202 203 203 208 206 206 209 210 215 214 221 223 212 228 216 210 187 204 198 198 207 206 233 204 225 224 260 234 273 245 267 282 285 280 279 288 285
202 202 200 202 201 201 202 204 202 207 205 205 207 210 211 216 218 215 231 211 221 208 197 201 204 218 205 209 195 203 230 211 229 242 271 300 278 273 276 285 304 298 294
206 199 199 202 200 201 200 202 204 205 205 204 205 209 208 218 214 223 204 210 219 214 195 193 204 214 214 211 199 228 204 224 227 239 243 259 274 276 273 285 287 297 301
207 204 200 199 198 199 201 203 206 207 206 205 205 209 208 207 211 210 204 212 202 218 185 200 195 191 206 222 217 226 213 227 241 241 244 257 274 274 261 283 276 276 292
204 206 203 202 196 199 201 203 204 206 205 203 205 208 206 202 205 208 205 211 182 184 195 209 208 204 194 220 228 246 259 232 238 245 247 250 259 267 273 272 278 279 277
206 205 205 199 196 201 200 203 203 204 205 204 202 205 205 204 203 202 198 174 195 162 179 173 224 248 229 224 231 236 239 227 236 237 243 247 248 236 253 263 269 287 298
205 202 200 194 202 200 202 205 203 205 204 206 201 205 206 206 206 203 186 179 182 162 175 153 193 223 233 235 233 238 240 238 243 243 242 249 251 257 270 286 288 286 286
204 199 199 193 198 201 199 204 208 207 208 204 207 206 209 208 204 201 174 176 178 166 174 178 177 204 239 231 236 236 236 235 236 244 249 252 251 254 260 266 270 271 271
198 197 196 190 192 196 196 201 207 205 211 207 212 210 207 207 200 192 190 175 173 180 185 178 179 203 226 221 232 235 234 232 234 243 247 245 249 253 247 258 274 293 276
202 200 194 192 191 192 192 190 197 201 201 212 211 213 195 198 195 195 191 187 186 190 193 198 199 208 224 219 205 229 229 232 240 249 265 280 270 227 245 237 254 273 274
202 195 193 193 186 185 183 180 183 186 187 195 199 199 195 198 196 199 199 196 197 205 221 205 204 219 227 210 204 206 238 251 246 251 266 286 277 274 267 238 224 236 229
194 188 187 178 172 176 174 170 170 176 181 186 191 190 193 195 199 196 204 204 204 204 207 215 222 226 229 187 147 162 224 239 239 233 231 287 277 274 262 257 267 277 279
192 175 167 164 166 167 158 159 164 169 172 178 184 184 190 196 198 202 205 206 202 209 216 229 235 231 233 169 173 185 224 226 228 213 225 221 229 204 151 256 270 280 286
179 170 161 155 158 151 153 154 156 163 172 173 179 179 186 192 192 202 204 206 218 210 216 237 228 225 229 183 184 195 221 218 238 223 248 170 273 126 185 261 275 278 280
149 140 144 143 140 144 146 151 155 164 166 170 172 178 185 191 188 195 175 199 211 212 223 233 230 218 212 204 195 205 216 230 223 250 225 186 144 195 201 230 267 282 322
136 127 126 126 132 139 148 147 152 147 154 161 162 169 175 185 188 178 155 170 204 213 219 226 230 228 226 219 183 202 243 196 242 247 239 121 149 191 215 229 133 152 264
119 118 118 119 122 127 137 137 127 142 147 146 160 162 165 181 158 151 162 183 202 229 226 222 231 230 183 138 110 185 210 186 222 223 70 110 180 218 227 220 197 232 251
103 110 118 121 117 115 117 125 146 148 149 151 156 155 164 172 166 172 180 214 196 212 221 226 220 86 171 188 163 159 155 140 188 137 152 98 336 21 57 164 204 240 284
76 83 103 110 116 118 116 127 134 147 149 155 166 170 167 172 175 91 23 235 60 8 224 204 214 223 200 185 123 174 180 182 80 165 214 224 233 248 229 237 252 272 280
71 74 96 116 122 119 122 132 145 162 154 151 165 154 162 164 174 157 150 50 45 45 31 360 324 102 66 104 92 82 78 86 118 223 251 260 265 277 282 273 279 279 247